Weather History for Pampa / Mesa Vista, TX

Change the Weather History Date:

Saturday, December 29, 2012

  Actual Average (KBGD) Record (KBGD)
Temperature  
Mean Temperature 30 °F 37 °F  
Max Temperature 44 °F 49 °F 74 °F (1965)
Min Temperature 17 °F 25 °F -7 °F (1983)
Degree Days  
Heating Degree Days 34 28  
Month to date heating degree days 766  
Since 1 July heating degree days 1483  
Cooling Degree Days 0 0  
Month to date cooling degree days 0  
Year to date cooling degree days 1839  
Moisture  
Dew Point 17 °F    
Average Humidity 62    
Maximum Humidity 86    
Minimum Humidity 27    
Precipitation  
Precipitation 0.00 in 0.04 in 1.64 in (2006)
Month to date precipitation 0.70  
Year to date precipitation 21.65  
Snow  
Snow 0.00 in - - ()
Month to date snowfall  
Since 1 July snowfall  
Snow Depth -    
Sea Level Pressure  
Sea Level Pressure 30.27 in    
Wind  
Wind Speed 9 mph (SSW)    
Max Wind Speed 17 mph    
Max Gust Speed 22 mph    
Visibility 10 miles    
Events      
T = Trace of Precipitation, MM = Missing Value Source: NWS Daily Summary

Daily Weather History Graph

Daily Weather History Graph

Search for Another Location

Airport:

Trip Planner

Search our weather history database for the weather conditions in past years. The results will help you decide how hot, cold, wet, or windy it might be!

Date:

Astronomy

Dec. 29, 2012 Rise Set
Actual Time 7:53 AM CST 5:39 PM CST
Civil Twilight 7:25 AM CST 6:07 PM CST
Nautical Twilight 6:53 AM CST 6:39 PM CST
Astronomical Twilight 6:22 AM CST 7:10 PM CST
Moon 7:10 PM CST (12/29) 8:31 AM CST (12/29)
Length of Visible Light 10h 42m
Length of Day
9h 45m
Full, 98% of the Moon is Illuminated
Dec 29
Full
Jan 4
Last Quarter
Jan 11
New
Jan 18
First Quarter
Jan 26
Full

Hourly Weather History & Observations

Time (CST) Temp. Windchill Dew Point Humidity Pressure Visibility Wind Dir Wind Speed Gust Speed Precip Events Conditions
12:15 AM 19.4 °F 9.5 °F 15.8 °F 86% 30.19 in 10.0 mi WSW 8.1 mph - N/A   Clear
12:35 AM 19.4 °F 9.5 °F 15.8 °F 86% 30.19 in 10.0 mi WSW 8.1 mph - N/A   Clear
1:15 AM 19.4 °F 9.5 °F 15.8 °F 86% 30.19 in 10.0 mi WSW 8.1 mph - N/A   Clear
1:35 AM 19.4 °F 11.5 °F 14.0 °F 80% 30.19 in 10.0 mi WSW 5.8 mph - N/A   Clear
1:55 AM 19.4 °F 11.5 °F 15.8 °F 86% 30.21 in 10.0 mi WSW 5.8 mph - N/A   Clear
2:15 AM 17.6 °F 6.4 °F 14.0 °F 86% 30.21 in 10.0 mi SSW 9.2 mph - N/A   Clear
2:35 AM 19.4 °F 8.6 °F 14.0 °F 80% 30.22 in 10.0 mi SW 9.2 mph - N/A   Clear
2:55 AM 19.4 °F 8.6 °F 14.0 °F 80% 30.23 in 10.0 mi SW 9.2 mph - N/A   Clear
3:15 AM 19.4 °F 9.5 °F 15.8 °F 86% 30.24 in 10.0 mi SW 8.1 mph - N/A   Clear
3:35 AM 21.2 °F 10.1 °F 15.8 °F 80% 30.25 in 10.0 mi SW 10.4 mph - N/A   Clear
3:55 AM 21.2 °F 10.1 °F 15.8 °F 80% 30.26 in 10.0 mi SW 10.4 mph - N/A   Clear
4:15 AM 21.2 °F 9.5 °F 15.8 °F 80% 30.26 in 10.0 mi SW 11.5 mph - N/A   Clear
4:35 AM 21.2 °F 11.7 °F 15.8 °F 80% 30.26 in 10.0 mi WSW 8.1 mph - N/A   Clear
4:55 AM 19.4 °F 8.6 °F 14.0 °F 80% 30.26 in 10.0 mi WSW 9.2 mph - N/A   Clear
5:15 AM 17.6 °F 7.3 °F 14.0 °F 86% 30.26 in 10.0 mi SW 8.1 mph - N/A   Clear
5:35 AM 19.4 °F 8.6 °F 14.0 °F 80% 30.26 in 10.0 mi SW 9.2 mph - N/A   Clear
5:55 AM 19.4 °F 8.6 °F 14.0 °F 80% 30.27 in 10.0 mi SW 9.2 mph - N/A   Clear
6:15 AM 19.4 °F 7.2 °F 14.0 °F 80% 30.28 in 10.0 mi SW 11.5 mph - N/A   Clear
6:35 AM 19.4 °F 7.9 °F 14.0 °F 80% 30.29 in 10.0 mi SW 10.4 mph - N/A   Clear
6:55 AM 19.4 °F 7.9 °F 14.0 °F 80% 30.30 in 10.0 mi SW 10.4 mph - N/A   Clear
7:15 AM 19.4 °F 7.9 °F 14.0 °F 80% 30.30 in 10.0 mi WSW 10.4 mph - N/A   Clear
7:35 AM 19.4 °F 7.9 °F 14.0 °F 80% 30.31 in 10.0 mi SW 10.4 mph - N/A   Clear
7:55 AM 19.4 °F 8.6 °F 14.0 °F 80% 30.32 in 10.0 mi SW 9.2 mph - N/A   Clear
8:35 AM 19.4 °F 11.5 °F 14.0 °F 80% 30.32 in 10.0 mi SW 5.8 mph - N/A   Clear
8:55 AM 21.2 °F 11.7 °F 17.6 °F 86% 30.33 in 10.0 mi SW 8.1 mph - N/A   Clear
9:15 AM 23.0 °F 12.4 °F 17.6 °F 80% 30.33 in 10.0 mi SW 10.4 mph - N/A   Clear
9:35 AM 26.6 °F 17.5 °F 19.4 °F 74% 30.35 in 10.0 mi SW 9.2 mph - N/A   Clear
9:55 AM 28.4 °F 21.2 °F 19.4 °F 69% 30.35 in 10.0 mi SW 6.9 mph - N/A   Clear
10:15 AM 30.2 °F 20.2 °F 19.4 °F 64% 30.36 in 10.0 mi SW 12.7 mph - N/A   Clear
10:35 AM 32.0 °F 23.6 °F 19.4 °F 60% 30.37 in 10.0 mi SW 10.4 mph - N/A   Clear
10:55 AM 32.0 °F 23.0 °F 19.4 °F 60% 30.37 in 10.0 mi SW 11.5 mph - N/A   Clear
11:15 AM 33.8 °F 26.4 °F 19.4 °F 56% 30.37 in 10.0 mi SW 9.2 mph - N/A   Clear
11:55 AM 35.6 °F 29.9 °F 19.4 °F 52% 30.36 in 10.0 mi WSW 6.9 mph - N/A   Clear
12:15 PM 37.4 °F 31.4 °F 19.4 °F 48% 30.35 in 10.0 mi SW 8.1 mph - N/A   Clear
12:35 PM 41.0 °F 37.1 °F 17.6 °F 39% 30.33 in 10.0 mi WSW 5.8 mph - N/A   Clear
12:55 PM 41.0 °F 38.0 °F 15.8 °F 36% 30.32 in 10.0 mi SW 4.6 mph - N/A   Clear
1:15 PM 42.8 °F 38.6 °F 17.6 °F 36% 30.31 in 10.0 mi SW 6.9 mph - N/A   Clear
1:35 PM 42.8 °F 39.3 °F 14.0 °F 31% 30.30 in 10.0 mi WSW 5.8 mph - N/A   Clear
1:55 PM 42.8 °F 38.6 °F 12.2 °F 29% 30.29 in 10.0 mi SW 6.9 mph - N/A   Clear
2:15 PM 42.8 °F 39.3 °F 12.2 °F 29% 30.28 in 10.0 mi WSW 5.8 mph - N/A   Clear
2:35 PM 44.6 °F 41.4 °F 12.2 °F 27% 30.28 in 10.0 mi SSW 5.8 mph - N/A   Clear
2:55 PM 44.6 °F 40.7 °F 14.0 °F 29% 30.28 in 10.0 mi SSW 6.9 mph - N/A   Clear
3:15 PM 44.6 °F 40.2 °F 14.0 °F 29% 30.27 in 10.0 mi SSW 8.1 mph - N/A   Clear
3:35 PM 44.6 °F 38.8 °F 17.6 °F 34% 30.27 in 10.0 mi SSW 11.5 mph - N/A   Clear
3:55 PM 44.6 °F 39.7 °F 17.6 °F 34% 30.26 in 10.0 mi South 9.2 mph - N/A   Clear
4:15 PM 44.6 °F 40.2 °F 17.6 °F 34% 30.26 in 10.0 mi South 8.1 mph - N/A   Clear
4:35 PM 44.6 °F 39.7 °F 17.6 °F 34% 30.26 in 10.0 mi South 9.2 mph - N/A   Clear
4:55 PM 42.8 °F 39.3 °F 19.4 °F 39% 30.25 in 10.0 mi SSE 5.8 mph - N/A   Clear
5:15 PM 41.0 °F 37.1 °F 19.4 °F 42% 30.25 in 10.0 mi SSE 5.8 mph - N/A   Clear
5:35 PM 37.4 °F 32.1 °F 21.2 °F 52% 30.24 in 10.0 mi SSE 6.9 mph - N/A   Clear
5:55 PM 33.8 °F 27.7 °F 21.2 °F 60% 30.24 in 10.0 mi SSE 6.9 mph - N/A   Clear
6:15 PM 32.0 °F 24.8 °F 21.2 °F 64% 30.24 in 10.0 mi SSE 8.1 mph - N/A   Clear
6:35 PM 32.0 °F 24.8 °F 21.2 °F 64% 30.24 in 10.0 mi SSE 8.1 mph - N/A   Clear
6:55 PM 32.0 °F 23.6 °F 21.2 °F 64% 30.24 in 10.0 mi South 10.4 mph - N/A   Clear
7:15 PM 32.0 °F 23.0 °F 21.2 °F 64% 30.24 in 10.0 mi South 11.5 mph - N/A   Clear
7:35 PM 32.0 °F 22.5 °F 19.4 °F 60% 30.23 in 10.0 mi South 12.7 mph - N/A   Clear
7:55 PM 32.0 °F 22.5 °F 19.4 °F 60% 30.24 in 10.0 mi South 12.7 mph - N/A   Clear
8:15 PM 32.0 °F 22.5 °F 19.4 °F 60% 30.24 in 10.0 mi South 12.7 mph - N/A   Clear
8:35 PM 32.0 °F 22.1 °F 19.4 °F 60% 30.24 in 10.0 mi South 13.8 mph - N/A   Clear
8:55 PM 32.0 °F 22.1 °F 19.4 °F 60% 30.25 in 10.0 mi South 13.8 mph - N/A   Clear
9:15 PM 32.0 °F 22.5 °F 17.6 °F 55% 30.24 in 10.0 mi South 12.7 mph - N/A   Clear
9:35 PM 33.8 °F 24.3 °F 17.6 °F 52% 30.25 in 10.0 mi South 13.8 mph - N/A   Clear
9:55 PM 33.8 °F 24.8 °F 17.6 °F 52% 30.24 in 10.0 mi South 12.7 mph - N/A   Clear
10:15 PM 32.0 °F 20.8 °F 17.6 °F 55% 30.24 in 10.0 mi South 17.3 mph - N/A   Clear
10:35 PM 33.8 °F 23.2 °F 17.6 °F 52% 30.23 in 10.0 mi South 17.3 mph 21.9 mph N/A   Clear
10:55 PM 32.0 °F 21.6 °F 17.6 °F 55% 30.23 in 10.0 mi South 15.0 mph - N/A   Clear
11:15 PM 32.0 °F 22.1 °F 17.6 °F 55% 30.23 in 10.0 mi South 13.8 mph - N/A   Clear
11:35 PM 32.0 °F 22.1 °F 17.6 °F 55% 30.22 in 10.0 mi South 13.8 mph - N/A   Clear
11:55 PM 32.0 °F 21.2 °F 17.6 °F 55% 30.22 in 10.0 mi South 16.1 mph - N/A   Clear